Terminal Aerodrome Forecast
Issued by NWS

Home | Current Version | Previous Version | Text Only | Print | Product List | Glossary On
Versions: 1 2 3 4 5 6 7 8 9 10 11 12 13 14
582
FTUS43 KEAX 021730
TAFSTJ
TAF
KSTJ 021730Z 0218/0318 36008KT P6SM BKN023 BKN050 OVC060
     FM021900 35005KT P6SM SCT140
     FM030100 VRB05KT P6SM FEW200
     FM031400 27005KT P6SM SKC=

USA.gov is the U.S. government's official web portal to all federal, state and local government web resources and services.